• In Hungary
  • List of Countries
  • For 7 days
  • Water Temperature
  • Satellite Maps
  • Weather Map
  • News
  • Weather Widgets
  • user-avatar
    Login

    Hourly Weather Uige

    Today, 17 July, Tuesday

    Time Temperature Precipitation Wind Pressure Humidity
    00:00 +21°C° 0 mm 1 mps 693 mmHg 69%
    01:00 +20°C° 0 mm 1 mps 693 mmHg 81%
    02:00 +20°C° 0 mm 1 mps 693 mmHg 83%
    03:00 +20°C° 0 mm 1 mps 693 mmHg 86%
    04:00 +20°C° 0 mm 1 mps 693 mmHg 89%
    05:00 +20°C° 0 mm 1 mps 693 mmHg 88%
    06:00 +20°C° 0 mm 1 mps 693 mmHg 87%
    07:00 +18°C° 0 mm 0 mps 694 mmHg 83%
    08:00 +24°C° 0 mm 1 mps 694 mmHg 66%
    09:00 +27°C° 0 mm 2 mps 694 mmHg 49%
    10:00 +30°C° 0 mm 2 mps 695 mmHg 32%
    11:00 +32°C° 0 mm 2 mps 695 mmHg 27%
    12:00 +35°C° 0 mm 2 mps 694 mmHg 21%
    13:00 +37°C° 0 mm 2 mps 694 mmHg 16%
    14:00 +37°C° 0 mm 2 mps 693 mmHg 16%
    15:00 +37°C° 0 mm 2 mps 693 mmHg 15%
    16:00 +37°C° 0 mm 2 mps 692 mmHg 15%
    17:00 +33°C° 0 mm 1 mps 692 mmHg 19%
    18:00 +30°C° 0 mm 1 mps 692 mmHg 23%
    19:00 +27°C° 0 mm 1 mps 692 mmHg 27%
    20:00 +26°C° 0 mm 1 mps 692 mmHg 34%
    21:00 +25°C° 0 mm 1 mps 693 mmHg 41%
    22:00 +23°C° 0 mm 1 mps 693 mmHg 49%
    23:00 +22°C° 0 mm 1 mps 693 mmHg 58%

    Tomorrow, 18 July, Wednesday

    Time Temperature Precipitation Wind Pressure Humidity
    00:00 +21°C° 0 mm 1 mps 693 mmHg 67%
    01:00 +20°C° 0 mm 1 mps 692 mmHg 76%
    02:00 +20°C° 0 mm 1 mps 692 mmHg 79%
    03:00 +19°C° 0 mm 1 mps 692 mmHg 82%
    04:00 +19°C° 0 mm 1 mps 692 mmHg 85%
    05:00 +19°C° 0 mm 1 mps 692 mmHg 83%
    06:00 +19°C° 0 mm 1 mps 693 mmHg 81%
    07:00 +19°C° 0 mm 1 mps 693 mmHg 79%
    08:00 +23°C° 0 mm 1 mps 693 mmHg 62%
    09:00 +27°C° 0 mm 2 mps 694 mmHg 45%
    10:00 +30°C° 0 mm 3 mps 695 mmHg 28%
    11:00 +32°C° 0 mm 2 mps 694 mmHg 24%
    12:00 +35°C° 0 mm 2 mps 694 mmHg 20%
    13:00 +37°C° 0 mm 2 mps 694 mmHg 16%
    14:00 +37°C° 0 mm 2 mps 693 mmHg 16%
    15:00 +37°C° 0 mm 2 mps 693 mmHg 16%
    16:00 +36°C° 0 mm 1 mps 692 mmHg 16%
    17:00 +33°C° 0 mm 1 mps 692 mmHg 20%
    18:00 +30°C° 0 mm 1 mps 692 mmHg 23%
    19:00 +28°C° 0 mm 1 mps 692 mmHg 27%
    20:00 +26°C° 0 mm 1 mps 692 mmHg 33%
    21:00 +25°C° 0 mm 1 mps 693 mmHg 39%
    22:00 +24°C° 0 mm 1 mps 693 mmHg 45%
    23:00 +23°C° 0 mm 1 mps 693 mmHg 53%

    Day after tomorrow, 19 July, Thursday

    Time Temperature Precipitation Wind Pressure Humidity
    00:00 +22°C° 0 mm 1 mps 693 mmHg 61%
    01:00 +20°C° 0 mm 1 mps 693 mmHg 69%
    02:00 +20°C° 0 mm 1 mps 692 mmHg 73%
    03:00 +19°C° 0 mm 1 mps 692 mmHg 77%
    04:00 +17°C° 0 mm 0 mps 691 mmHg 81%
    05:00 +17°C° 0 mm 0 mps 692 mmHg 77%
    06:00 +17°C° 0 mm 0 mps 692 mmHg 73%
    07:00 +18°C° 0 mm 0 mps 693 mmHg 69%
    08:00 +24°C° 0 mm 1 mps 694 mmHg 54%
    09:00 +28°C° 0 mm 1 mps 695 mmHg 39%
    10:00 +32°C° 0 mm 2 mps 695 mmHg 25%
    11:00 +35°C° 0 mm 2 mps 695 mmHg 21%
    12:00 +36°C° 0 mm 2 mps 694 mmHg 18%
    13:00 +38°C° 0 mm 2 mps 694 mmHg 15%
    14:00 +37°C° 0 mm 1 mps 693 mmHg 15%
    15:00 +37°C° 0 mm 1 mps 692 mmHg 15%
    16:00 +37°C° 0 mm 1 mps 691 mmHg 14%
    17:00 +34°C° 0 mm 1 mps 691 mmHg 19%
    18:00 +30°C° 0 mm 1 mps 691 mmHg 24%
    19:00 +27°C° 0 mm 1 mps 691 mmHg 28%
    20:00 +26°C° 0 mm 1 mps 692 mmHg 37%
    21:00 +25°C° 0 mm 1 mps 692 mmHg 46%
    22:00 +23°C° 0 mm 2 mps 693 mmHg 54%
    23:00 +22°C° 0 mm 1 mps 692 mmHg 63%

    20 July, Friday

    Time Temperature Precipitation Wind Pressure Humidity
    00:00 +21°C° 0 mm 1 mps 692 mmHg 72%
    01:00 +20°C° 0 mm 1 mps 692 mmHg 80%
    02:00 +19°C° 0 mm 1 mps 691 mmHg 85%
    03:00 +19°C° 0 mm 1 mps 691 mmHg 89%
    04:00 +18°C° 0 mm 1 mps 691 mmHg 93%
    05:00 +18°C° 0 mm 1 mps 691 mmHg 90%
    06:00 +19°C° 0 mm 1 mps 692 mmHg 88%
    07:00 +17°C° 0 mm 0 mps 692 mmHg 85%
    08:00 +23°C° 0 mm 1 mps 693 mmHg 67%
    09:00 +27°C° 0 mm 1 mps 694 mmHg 48%
    10:00 +31°C° 0 mm 2 mps 694 mmHg 30%
    11:00 +34°C° 0 mm 2 mps 694 mmHg 25%
    12:00 +36°C° 0 mm 2 mps 693 mmHg 20%
    13:00 +38°C° 0 mm 2 mps 692 mmHg 15%
    14:00 +38°C° 0 mm 2 mps 692 mmHg 14%
    15:00 +37°C° 0 mm 1 mps 691 mmHg 14%
    16:00 +36°C° 0 mm 1 mps 690 mmHg 14%
    17:00 +33°C° 0 mm 1 mps 691 mmHg 18%
    18:00 +30°C° 0 mm 1 mps 691 mmHg 23%
    19:00 +27°C° 0 mm 1 mps 691 mmHg 27%
    20:00 +26°C° 0 mm 1 mps 691 mmHg 35%
    21:00 +24°C° 0 mm 1 mps 692 mmHg 43%
    22:00 +23°C° 0 mm 1 mps 692 mmHg 51%
    23:00 +22°C° 0 mm 1 mps 692 mmHg 60%

    21 July, Saturday

    Time Temperature Precipitation Wind Pressure Humidity
    00:00 +21°C° 0 mm 1 mps 692 mmHg 69%
    01:00 +20°C° 0 mm 1 mps 691 mmHg 79%
    02:00 +19°C° 0 mm 1 mps 691 mmHg 83%
    03:00 +19°C° 0 mm 1 mps 691 mmHg 88%
    04:00 +18°C° 0 mm 1 mps 691 mmHg 92%
    05:00 +19°C° 0 mm 1 mps 691 mmHg 90%
    06:00 +19°C° 0 mm 1 mps 692 mmHg 88%
    07:00 +19°C° 0 mm 1 mps 692 mmHg 86%
    08:00 +23°C° 0 mm 1 mps 693 mmHg 67%
    09:00 +27°C° 0 mm 1 mps 694 mmHg 48%
    10:00 +31°C° 0 mm 2 mps 694 mmHg 29%
    11:00 +35°C° 0 mm 2 mps 694 mmHg 24%
    12:00 +37°C° 0 mm 2 mps 693 mmHg 19%
    13:00 +39°C° 0 mm 2 mps 693 mmHg 14%
    14:00 +38°C° 0 mm 2 mps 692 mmHg 14%
    15:00 +38°C° 0 mm 2 mps 692 mmHg 14%
    16:00 +37°C° 0 mm 1 mps 691 mmHg 14%
    17:00 +33°C° 0 mm 1 mps 691 mmHg 19%
    18:00 +30°C° 0 mm 1 mps 691 mmHg 24%
    19:00 +27°C° 0 mm 1 mps 692 mmHg 29%
    20:00 +26°C° 0 mm 1 mps 692 mmHg 40%
    21:00 +24°C° 0 mm 2 mps 692 mmHg 51%
    22:00 +23°C° 0 mm 2 mps 693 mmHg 62%
    23:00 +22°C° 0 mm 1 mps 693 mmHg 71%

    22 July, Sunday

    Time Temperature Precipitation Wind Pressure Humidity
    00:00 +21°C° 0 mm 1 mps 692 mmHg 80%
    01:00 +20°C° 0 mm 1 mps 692 mmHg 89%
    02:00 +19°C° 0 mm 1 mps 692 mmHg 91%
    03:00 +19°C° 0 mm 1 mps 692 mmHg 94%
    04:00 +18°C° 0 mm 1 mps 691 mmHg 96%
    05:00 +18°C° 0 mm 1 mps 692 mmHg 93%
    06:00 +19°C° 0 mm 1 mps 692 mmHg 90%
    07:00 +19°C° 0 mm 1 mps 693 mmHg 87%
    08:00 +23°C° 0 mm 1 mps 693 mmHg 68%
    09:00 +27°C° 0 mm 1 mps 694 mmHg 50%
    10:00 +32°C° 0 mm 1 mps 695 mmHg 31%
    11:00 +34°C° 0 mm 1 mps 694 mmHg 26%
    12:00 +36°C° 0 mm 1 mps 694 mmHg 21%
    13:00 +40°C° 0 mm 1 mps 693 mmHg 15%
    14:00 +39°C° 0 mm 1 mps 692 mmHg 15%
    15:00 +39°C° 0 mm 1 mps 692 mmHg 15%
    16:00 +37°C° 0 mm 1 mps 691 mmHg 15%
    17:00 +34°C° 0 mm 1 mps 691 mmHg 19%
    18:00 +31°C° 0 mm 1 mps 692 mmHg 24%
    19:00 +28°C° 0 mm 2 mps 692 mmHg 29%
    20:00 +26°C° 0 mm 2 mps 692 mmHg 39%
    21:00 +25°C° 0 mm 2 mps 693 mmHg 49%
    22:00 +23°C° 0 mm 2 mps 693 mmHg 59%
    23:00 +21°C° 0 mm 2 mps 693 mmHg 67%
    Show more